FJI910 YSSY-NFFN

Flight info

Callsign FJI910
Flight time 3h 26m
Altitude 41000
Route KADOM1/34L 3358S15112E TESAT G595 SOTKI 30S160E UBLIN A579 TUTMU
Aircraft A359/H-SDE2E3GHIJ3J4J5LM1ORWXY/LB1D1

Departure

Time 2026-05-04 05:28
Airport Sydney Kingsford Smith International Airport (YSSY)

Arrival

Time 2026-05-04 08:54
Airport Nadi International Airport (NFFN)
Time Latitude Longitude Altitude Speed Heading
2026-05-04 05:01 -33.94013 151.16616 36 ft 0 kts 344°
2026-05-04 05:14 -33.94030 151.16621 35 ft 4 kts 349°
2026-05-04 05:14 -33.94056 151.16625 35 ft 4 kts 359°
2026-05-04 05:15 -33.94083 151.16623 35 ft 4 kts 12°
2026-05-04 05:15 -33.94108 151.16612 33 ft 4 kts 39°
2026-05-04 05:15 -33.94119 151.16595 34 ft 0 kts 74°
2026-05-04 05:19 -33.94115 151.16616 34 ft 8 kts 74°
2026-05-04 05:19 -33.94101 151.16674 34 ft 13 kts 74°
2026-05-04 05:20 -33.94077 151.16777 36 ft 14 kts 74°
2026-05-04 05:20 -33.94048 151.16898 36 ft 16 kts 74°
2026-05-04 05:20 -33.94016 151.17036 36 ft 18 kts 74°
2026-05-04 05:20 -33.93987 151.17153 36 ft 13 kts 74°
2026-05-04 05:21 -33.94012 151.17230 35 ft 11 kts 152°
2026-05-04 05:21 -33.94096 151.17257 35 ft 14 kts 168°
2026-05-04 05:21 -33.94205 151.17286 35 ft 17 kts 168°
2026-05-04 05:21 -33.94329 151.17318 36 ft 19 kts 168°
2026-05-04 05:22 -33.94469 151.17353 35 ft 22 kts 168°
2026-05-04 05:22 -33.94627 151.17394 37 ft 24 kts 168°
2026-05-04 05:22 -33.94798 151.17439 36 ft 25 kts 166°
2026-05-04 05:22 -33.94973 151.17484 36 ft 27 kts 168°
2026-05-04 05:23 -33.95161 151.17533 36 ft 29 kts 168°
2026-05-04 05:23 -33.95351 151.17582 36 ft 27 kts 168°
2026-05-04 05:23 -33.95528 151.17629 36 ft 23 kts 168°
2026-05-04 05:23 -33.95691 151.17671 36 ft 25 kts 168°
2026-05-04 05:24 -33.95867 151.17717 36 ft 27 kts 168°
2026-05-04 05:24 -33.96056 151.17766 37 ft 29 kts 168°
2026-05-04 05:24 -33.96227 151.17811 36 ft 20 kts 168°
2026-05-04 05:24 -33.96352 151.17843 36 ft 13 kts 168°
2026-05-04 05:25 -33.96430 151.17897 36 ft 14 kts 111°
2026-05-04 05:25 -33.96422 151.18012 36 ft 13 kts 75°
2026-05-04 05:25 -33.96356 151.18048 36 ft 12 kts 347°
2026-05-04 05:25 -33.96333 151.18041 36 ft 0 kts 348°
2026-05-04 05:26 -33.96175 151.18001 32 ft 59 kts 348°
2026-05-04 05:26 -33.95533 151.17836 35 ft 127 kts 348°
2026-05-04 05:27 -33.94511 151.17573 323 ft 157 kts 350°
2026-05-04 05:28 -33.88739 151.09255 5327 ft 236 kts 306°
2026-05-04 05:29 -33.87786 151.07622 6169 ft 240 kts 307°
2026-05-04 05:29 -33.86796 151.05977 7031 ft 244 kts 307°
2026-05-04 05:29 -33.85780 151.04314 7902 ft 249 kts 308°
2026-05-04 05:29 -33.84793 151.02571 8748 ft 256 kts 301°
2026-05-04 05:31 -33.74034 151.00297 13527 ft 351 kts 44°
2026-05-04 05:31 -33.72671 151.02789 14251 ft 366 kts 61°
2026-05-04 05:32 -33.72080 151.05809 14950 ft 380 kts 83°
2026-05-04 05:32 -33.72207 151.09013 15690 ft 389 kts 95°
2026-05-04 05:32 -33.72717 151.12245 16455 ft 396 kts 100°
2026-05-04 05:33 -33.74132 151.18729 17880 ft 407 kts 102°
2026-05-04 05:33 -33.74861 151.22037 18536 ft 412 kts 102°
2026-05-04 05:33 -33.75561 151.25389 19125 ft 417 kts 101°
2026-05-04 05:33 -33.76239 151.28806 19716 ft 423 kts 101°
2026-05-04 05:34 -33.76899 151.32265 20346 ft 428 kts 101°
2026-05-04 05:34 -33.77555 151.35772 20980 ft 432 kts 101°
2026-05-04 05:34 -33.78212 151.39319 21656 ft 436 kts 101°
2026-05-04 05:34 -33.78875 151.42906 22268 ft 442 kts 101°
2026-05-04 05:35 -33.79545 151.46530 22896 ft 447 kts 101°
2026-05-04 05:35 -33.80224 151.50198 23507 ft 452 kts 101°
2026-05-04 05:35 -33.80912 151.53911 24009 ft 457 kts 101°
2026-05-04 05:35 -33.81596 151.57607 24542 ft 461 kts 101°
2026-05-04 05:36 -33.82294 151.61389 25064 ft 465 kts 101°
2026-05-04 05:36 -33.82997 151.65198 25605 ft 468 kts 101°
2026-05-04 05:36 -33.83700 151.69020 26193 ft 470 kts 101°
2026-05-04 05:36 -33.84410 151.72885 26687 ft 475 kts 100°
2026-05-04 05:37 -33.85125 151.76789 27166 ft 480 kts 100°
2026-05-04 05:37 -33.85844 151.80719 27656 ft 484 kts 100°
2026-05-04 05:37 -33.86569 151.84695 28156 ft 488 kts 100°
2026-05-04 05:38 -33.88033 151.92737 29143 ft 495 kts 99°
2026-05-04 05:38 -33.88768 151.96782 29746 ft 495 kts 99°
2026-05-04 05:38 -33.89504 152.00843 30230 ft 498 kts 99°
2026-05-04 05:38 -33.90225 152.04944 30523 ft 503 kts 97°
2026-05-04 05:39 -33.90586 152.09135 30821 ft 505 kts 89°
2026-05-04 05:39 -33.90778 152.17652 31427 ft 513 kts 87°
2026-05-04 05:39 -33.90808 152.21983 31528 ft 523 kts 86°
2026-05-04 05:40 -33.90837 152.30841 32040 ft 533 kts 86°
2026-05-04 05:40 -33.90854 152.35322 32337 ft 538 kts 86°
2026-05-04 05:40 -33.90874 152.39846 32615 ft 542 kts 86°
2026-05-04 05:41 -33.90897 152.44396 32899 ft 547 kts 86°
2026-05-04 05:41 -33.90920 152.48990 33165 ft 551 kts 86°
2026-05-04 05:41 -33.90942 152.53616 33443 ft 555 kts 86°
2026-05-04 05:41 -33.90964 152.58271 33809 ft 557 kts 86°
2026-05-04 05:42 -33.90983 152.62939 34031 ft 561 kts 86°
2026-05-04 05:42 -33.91000 152.67657 34250 ft 564 kts 86°
2026-05-04 05:42 -33.91016 152.72393 34480 ft 567 kts 86°
2026-05-04 05:42 -33.91030 152.77149 34740 ft 569 kts 86°
2026-05-04 05:43 -33.91042 152.81915 35069 ft 569 kts 86°
2026-05-04 05:43 -33.91053 152.86620 35334 ft 570 kts 86°
2026-05-04 05:43 -33.91061 152.91395 35636 ft 571 kts 86°
2026-05-04 05:45 -33.91060 153.25012 37339 ft 580 kts 86°
2026-05-04 05:45 -33.91054 153.29860 37632 ft 580 kts 86°
2026-05-04 05:47 -33.90956 153.63825 39481 ft 575 kts 87°
2026-05-04 05:47 -33.90935 153.68628 39790 ft 572 kts 87°
2026-05-04 05:47 -33.90912 153.73407 40079 ft 569 kts 87°
2026-05-04 05:48 -33.90883 153.78167 40328 ft 567 kts 87°
2026-05-04 05:48 -33.90854 153.82904 40577 ft 566 kts 87°
2026-05-04 05:48 -33.90825 153.87628 40814 ft 564 kts 87°
2026-05-04 05:48 -33.90795 153.92342 41014 ft 563 kts 87°
2026-05-04 05:49 -33.90728 154.01804 41075 ft 569 kts 87°
2026-05-04 05:49 -33.90653 154.11281 41075 ft 571 kts 87°
2026-05-04 05:51 -33.90277 154.49574 41086 ft 573 kts 87°
2026-05-04 05:52 -33.89839 154.59133 41089 ft 571 kts 81°
2026-05-04 05:52 -33.88902 154.68616 41095 ft 571 kts 80°
2026-05-04 05:54 -33.85508 155.06611 41091 ft 571 kts 82°
2026-05-04 05:55 -33.84076 155.15964 41110 ft 564 kts 65°
2026-05-04 05:55 -33.82493 155.20233 41108 ft 554 kts 53°
2026-05-04 05:55 -33.80342 155.24001 41133 ft 542 kts 43°
2026-05-04 05:56 -33.75436 155.30841 41109 ft 539 kts 39°
2026-05-04 05:56 -33.70373 155.37477 41116 ft 539 kts 39°
2026-05-04 05:57 -33.65312 155.44116 41120 ft 539 kts 39°
2026-05-04 05:57 -33.60264 155.50793 41113 ft 540 kts 40°
2026-05-04 05:58 -33.55229 155.57471 41114 ft 540 kts 40°
2026-05-04 05:58 -33.50191 155.64143 41125 ft 540 kts 40°
2026-05-04 05:59 -33.45136 155.70820 41128 ft 541 kts 40°
2026-05-04 05:59 -33.40082 155.77484 41126 ft 541 kts 39°
2026-05-04 06:00 -33.35017 155.84150 41116 ft 541 kts 39°
2026-05-04 06:00 -33.29983 155.90762 41116 ft 541 kts 39°
2026-05-04 06:01 -33.24911 155.97411 41124 ft 542 kts 39°
2026-05-04 06:03 -33.04561 156.23966 41129 ft 542 kts 39°
2026-05-04 06:05 -32.81544 156.53767 41141 ft 544 kts 39°
2026-05-04 06:06 -32.77275 156.59268 41145 ft 545 kts 39°
2026-05-04 06:06 -32.71296 156.66957 41142 ft 545 kts 39°
2026-05-04 06:07 -32.66138 156.73576 41144 ft 546 kts 39°
2026-05-04 06:07 -32.61812 156.79120 41149 ft 547 kts 39°
2026-05-04 06:08 -32.56643 156.85733 41145 ft 547 kts 39°
2026-05-04 06:08 -32.51471 156.92339 41130 ft 547 kts 39°
2026-05-04 06:09 -32.46298 156.98931 41149 ft 548 kts 39°
2026-05-04 06:11 -32.25539 157.25269 41150 ft 549 kts 39°
2026-05-04 06:13 -32.04639 157.51599 41149 ft 550 kts 39°
2026-05-04 06:14 -31.86263 157.74593 41149 ft 551 kts 39°
2026-05-04 06:15 -31.80994 157.81160 41152 ft 552 kts 39°
2026-05-04 06:15 -31.75730 157.87709 41154 ft 552 kts 39°
2026-05-04 06:16 -31.70449 157.94266 41137 ft 552 kts 39°
2026-05-04 06:16 -31.65158 158.00824 41149 ft 553 kts 39°
2026-05-04 06:17 -31.59871 158.07367 41154 ft 553 kts 39°
2026-05-04 06:17 -31.54600 158.13879 41150 ft 553 kts 39°
2026-05-04 06:18 -31.49266 158.20458 41164 ft 553 kts 39°
2026-05-04 06:20 -31.28044 158.46511 41121 ft 554 kts 39°
2026-05-04 06:21 -31.14705 158.62794 41143 ft 555 kts 39°
2026-05-04 06:22 -31.09358 158.69303 41143 ft 555 kts 39°
2026-05-04 06:25 -30.71820 159.14674 41140 ft 556 kts 39°
2026-05-04 06:26 -30.66441 159.21130 41134 ft 556 kts 39°
2026-05-04 06:26 -30.61051 159.27586 41134 ft 557 kts 40°
2026-05-04 06:27 -30.47546 159.43724 41132 ft 558 kts 40°
2026-05-04 06:28 -30.42172 159.50126 41132 ft 558 kts 39°
2026-05-04 06:28 -30.36714 159.56615 41133 ft 558 kts 40°
2026-05-04 06:29 -30.31330 159.63007 41129 ft 559 kts 40°
2026-05-04 06:29 -30.25899 159.69445 41129 ft 559 kts 40°
2026-05-04 06:30 -30.20437 159.75908 41127 ft 559 kts 40°
2026-05-04 06:30 -30.14990 159.82342 41125 ft 559 kts 40°
2026-05-04 06:31 -30.09588 159.88712 41126 ft 559 kts 40°
2026-05-04 06:31 -30.04144 159.95121 41125 ft 559 kts 40°
2026-05-04 06:33 -29.84034 160.22799 41129 ft 564 kts 47°
2026-05-04 06:34 -29.79097 160.29840 41110 ft 565 kts 47°
2026-05-04 06:34 -29.74155 160.36865 41092 ft 565 kts 47°
2026-05-04 06:36 -29.54350 160.64887 41116 ft 565 kts 47°
2026-05-04 06:37 -29.49389 160.71878 41102 ft 565 kts 47°
2026-05-04 06:37 -29.44433 160.78851 41116 ft 564 kts 47°
2026-05-04 06:38 -29.39460 160.85834 41119 ft 564 kts 47°
2026-05-04 06:40 -29.19555 161.13666 41114 ft 565 kts 47°
2026-05-04 06:40 -29.14570 161.20606 41113 ft 565 kts 47°
2026-05-04 06:41 -29.09578 161.27543 41109 ft 565 kts 47°
2026-05-04 06:41 -29.04583 161.34475 41097 ft 565 kts 47°
2026-05-04 06:42 -28.99617 161.41355 41110 ft 565 kts 47°
2026-05-04 06:44 -28.79591 161.68983 41107 ft 565 kts 47°
2026-05-04 06:44 -28.74578 161.75871 41105 ft 565 kts 47°
2026-05-04 06:45 -28.69558 161.82757 41102 ft 565 kts 47°
2026-05-04 06:45 -28.64539 161.89629 41102 ft 565 kts 47°
2026-05-04 06:46 -28.59507 161.96507 41077 ft 565 kts 47°
2026-05-04 06:46 -28.54481 162.03367 41099 ft 564 kts 47°
2026-05-04 06:48 -28.34344 162.30736 41091 ft 564 kts 47°
2026-05-04 06:50 -28.14170 162.57982 41096 ft 564 kts 47°
2026-05-04 06:51 -28.09119 162.64773 41090 ft 564 kts 47°
2026-05-04 06:51 -28.04065 162.71560 41094 ft 563 kts 47°
2026-05-04 06:52 -27.99005 162.78346 41089 ft 563 kts 47°
2026-05-04 06:52 -27.94805 162.83969 41092 ft 563 kts 47°
2026-05-04 06:53 -27.88919 162.91836 41090 ft 563 kts 47°
2026-05-04 06:53 -27.83864 162.98597 41088 ft 564 kts 49°
2026-05-04 06:54 -27.79993 163.04611 41083 ft 565 kts 54°
2026-05-04 06:54 -27.75526 163.11906 41088 ft 565 kts 54°
2026-05-04 06:55 -27.71086 163.19234 41084 ft 565 kts 54°
2026-05-04 06:55 -27.65920 163.27731 41085 ft 565 kts 54°
2026-05-04 06:57 -27.48822 163.55641 41082 ft 565 kts 54°
2026-05-04 06:58 -27.44351 163.62909 41080 ft 564 kts 54°
2026-05-04 06:58 -27.39878 163.70169 41081 ft 564 kts 55°
2026-05-04 06:59 -27.35396 163.77430 41080 ft 564 kts 55°
2026-05-04 06:59 -27.30922 163.84670 41075 ft 564 kts 55°
2026-05-04 07:01 -27.12965 164.13600 41078 ft 564 kts 55°
2026-05-04 07:02 -27.08473 164.20809 41066 ft 563 kts 55°
2026-05-04 07:02 -27.03979 164.28009 41066 ft 563 kts 55°
2026-05-04 07:03 -26.99484 164.35198 41080 ft 563 kts 55°
2026-05-04 07:03 -26.94982 164.42387 41075 ft 564 kts 55°
2026-05-04 07:04 -26.90472 164.49577 41070 ft 564 kts 55°
2026-05-04 07:04 -26.85962 164.56756 41070 ft 564 kts 55°
2026-05-04 07:05 -26.81447 164.63930 41067 ft 564 kts 55°
2026-05-04 07:05 -26.76924 164.71107 41067 ft 564 kts 54°
2026-05-04 07:06 -26.70141 164.81848 41069 ft 564 kts 55°
2026-05-04 07:07 -26.65615 164.89000 41049 ft 564 kts 55°
2026-05-04 07:09 -26.47487 165.17536 41061 ft 563 kts 55°
2026-05-04 07:09 -26.42947 165.24654 41056 ft 563 kts 55°
2026-05-04 07:10 -26.38400 165.31772 41046 ft 563 kts 55°
2026-05-04 07:12 -26.20254 165.60071 41053 ft 562 kts 54°
2026-05-04 07:12 -26.15700 165.67145 41052 ft 562 kts 54°
2026-05-04 07:13 -26.11147 165.74207 41044 ft 561 kts 54°
2026-05-04 07:13 -26.06590 165.81263 41053 ft 561 kts 55°
2026-05-04 07:14 -25.95197 165.98860 41049 ft 561 kts 55°
2026-05-04 07:15 -25.90630 166.05895 41039 ft 561 kts 54°
2026-05-04 07:15 -25.86064 166.12918 41035 ft 560 kts 55°
2026-05-04 07:16 -25.81505 166.19920 41040 ft 560 kts 55°
2026-05-04 07:16 -25.76941 166.26919 41036 ft 559 kts 55°
2026-05-04 07:17 -25.72373 166.33912 41034 ft 559 kts 55°
2026-05-04 07:17 -25.67812 166.40885 41035 ft 559 kts 55°
2026-05-04 07:18 -25.63240 166.47866 41034 ft 559 kts 55°
2026-05-04 07:18 -25.58665 166.54838 41033 ft 559 kts 55°
2026-05-04 07:19 -25.54124 166.61750 41033 ft 558 kts 55°
2026-05-04 07:19 -25.49550 166.68702 41026 ft 558 kts 55°
2026-05-04 07:20 -25.44975 166.75645 41030 ft 558 kts 55°
2026-05-04 07:20 -25.40393 166.82588 41027 ft 558 kts 55°
2026-05-04 07:22 -25.22070 167.10251 41026 ft 557 kts 55°
2026-05-04 07:23 -25.17486 167.17149 41021 ft 557 kts 55°
2026-05-04 07:23 -25.12897 167.24041 41032 ft 557 kts 55°
2026-05-04 07:24 -25.08310 167.30921 41005 ft 556 kts 55°
2026-05-04 07:24 -25.03725 167.37789 41018 ft 556 kts 55°
2026-05-04 07:26 -24.85362 167.65194 41012 ft 555 kts 55°
2026-05-04 07:27 -24.80762 167.72035 41007 ft 555 kts 55°
2026-05-04 07:27 -24.76169 167.78855 41010 ft 554 kts 55°
2026-05-04 07:28 -24.71570 167.85671 41013 ft 554 kts 55°
2026-05-04 07:28 -24.66979 167.92467 41013 ft 554 kts 55°
2026-05-04 07:29 -24.62405 167.99226 41016 ft 554 kts 55°
2026-05-04 07:29 -24.57769 168.06069 41014 ft 554 kts 55°
2026-05-04 07:30 -24.53167 168.12852 41006 ft 554 kts 55°
2026-05-04 07:30 -24.48562 168.19631 41017 ft 554 kts 55°
2026-05-04 07:31 -24.43984 168.26359 41023 ft 553 kts 55°
2026-05-04 07:33 -24.25541 168.53376 41023 ft 553 kts 55°
2026-05-04 07:33 -24.20920 168.60121 41022 ft 553 kts 55°
2026-05-04 07:34 -24.16300 168.66856 41015 ft 553 kts 55°
2026-05-04 07:34 -24.11677 168.73586 41020 ft 553 kts 55°
2026-05-04 07:35 -24.07053 168.80309 41016 ft 553 kts 55°
2026-05-04 07:35 -24.02425 168.87028 41016 ft 553 kts 55°
2026-05-04 07:36 -23.97800 168.93734 41002 ft 553 kts 55°
2026-05-04 07:38 -23.79295 169.20474 41024 ft 552 kts 55°
2026-05-04 07:38 -23.74660 169.27150 41022 ft 552 kts 55°
2026-05-04 07:39 -23.70015 169.33831 41017 ft 552 kts 55°
2026-05-04 07:39 -23.65378 169.40492 41023 ft 552 kts 55°
2026-05-04 07:40 -23.60732 169.47156 41022 ft 551 kts 55°
2026-05-04 07:40 -23.56084 169.53814 41025 ft 551 kts 55°
2026-05-04 07:41 -23.52228 169.59332 41017 ft 551 kts 55°
2026-05-04 07:41 -23.46793 169.67100 41019 ft 551 kts 55°
2026-05-04 07:42 -23.42138 169.73742 41020 ft 551 kts 55°
2026-05-04 07:42 -23.38270 169.79254 41018 ft 551 kts 55°
2026-05-04 07:43 -23.33613 169.85883 41010 ft 551 kts 55°
2026-05-04 07:43 -23.28962 169.92496 41010 ft 551 kts 55°
2026-05-04 07:44 -23.24304 169.99110 41012 ft 551 kts 55°
2026-05-04 07:44 -23.19641 170.05722 41013 ft 551 kts 55°
2026-05-04 07:45 -23.14978 170.12327 41023 ft 551 kts 55°
2026-05-04 07:45 -23.10321 170.18914 41015 ft 551 kts 55°
2026-05-04 07:46 -23.05653 170.25508 41013 ft 551 kts 55°
2026-05-04 07:46 -23.00977 170.32105 41033 ft 551 kts 55°
2026-05-04 07:47 -22.96302 170.38691 41020 ft 550 kts 55°
2026-05-04 07:49 -22.77610 170.64944 41018 ft 551 kts 54°
2026-05-04 07:49 -22.72918 170.71515 41021 ft 551 kts 54°
2026-05-04 07:50 -22.68193 170.78121 41019 ft 551 kts 54°
2026-05-04 07:50 -22.63496 170.84680 41017 ft 551 kts 54°
2026-05-04 07:51 -22.58831 170.91187 41041 ft 551 kts 54°
2026-05-04 07:51 -22.54127 170.97741 41018 ft 552 kts 54°
2026-05-04 07:52 -22.49413 171.04299 41016 ft 552 kts 54°
2026-05-04 07:52 -22.44708 171.10838 41018 ft 551 kts 54°
2026-05-04 07:54 -22.25838 171.36979 41017 ft 552 kts 54°
2026-05-04 07:55 -22.21113 171.43505 41010 ft 552 kts 54°
2026-05-04 07:55 -22.16390 171.50020 41016 ft 551 kts 54°
2026-05-04 07:56 -22.11667 171.56526 41016 ft 551 kts 54°
2026-05-04 07:56 -22.06938 171.63034 41017 ft 551 kts 54°
2026-05-04 07:57 -22.02203 171.69537 41021 ft 551 kts 53°
2026-05-04 07:57 -21.97476 171.76023 41016 ft 550 kts 53°
2026-05-04 07:58 -21.92746 171.82504 41019 ft 550 kts 53°
2026-05-04 07:58 -21.88009 171.88989 41017 ft 551 kts 53°
2026-05-04 07:59 -21.83276 171.95459 41010 ft 551 kts 53°
2026-05-04 07:59 -21.78530 172.01939 41017 ft 551 kts 53°
2026-05-04 08:00 -21.73790 172.08404 41015 ft 550 kts 53°
2026-05-04 08:02 -21.54802 172.34225 41015 ft 550 kts 53°
2026-05-04 08:02 -21.50081 172.40626 41017 ft 550 kts 53°
2026-05-04 08:03 -21.45329 172.47061 41017 ft 550 kts 53°
2026-05-04 08:03 -21.40574 172.53493 41015 ft 550 kts 53°
2026-05-04 08:04 -21.35812 172.59926 41012 ft 550 kts 53°
2026-05-04 08:04 -21.31048 172.66355 41011 ft 550 kts 53°
2026-05-04 08:05 -21.26285 172.72775 41013 ft 550 kts 53°
2026-05-04 08:05 -21.21516 172.79196 41007 ft 550 kts 53°
2026-05-04 08:06 -21.16746 172.85611 41006 ft 550 kts 53°
2026-05-04 08:06 -21.11972 172.92024 41007 ft 550 kts 53°
2026-05-04 08:08 -20.92853 173.17633 41015 ft 550 kts 52°
2026-05-04 08:11 -20.71375 173.46263 41004 ft 548 kts 52°
2026-05-04 08:11 -20.64201 173.55794 41010 ft 549 kts 52°
2026-05-04 08:12 -20.59437 173.62114 41001 ft 545 kts 52°
2026-05-04 08:12 -20.54686 173.68409 41001 ft 545 kts 52°
2026-05-04 08:13 -20.49927 173.74710 41001 ft 545 kts 52°
2026-05-04 08:13 -20.45174 173.80994 40995 ft 545 kts 51°
2026-05-04 08:14 -20.40413 173.87283 40997 ft 545 kts 51°
2026-05-04 08:16 -20.21518 174.12173 40994 ft 539 kts 51°
2026-05-04 08:16 -20.16798 174.18375 40995 ft 539 kts 51°
2026-05-04 08:17 -20.12073 174.24575 40993 ft 539 kts 51°
2026-05-04 08:17 -20.07345 174.30774 41005 ft 539 kts 50°
2026-05-04 08:19 -19.88461 174.55464 40991 ft 539 kts 50°
2026-05-04 08:20 -19.83731 174.61633 40990 ft 539 kts 50°
2026-05-04 08:20 -19.78995 174.67803 40997 ft 539 kts 49°
2026-05-04 08:21 -19.74274 174.73946 40987 ft 535 kts 49°
2026-05-04 08:21 -19.69573 174.80058 40989 ft 536 kts 49°
2026-05-04 08:22 -19.64851 174.86191 40985 ft 537 kts 49°
2026-05-04 08:24 -19.45931 175.10699 40980 ft 534 kts 49°
2026-05-04 08:24 -19.41259 175.16737 40975 ft 533 kts 49°
2026-05-04 08:25 -19.36548 175.22817 40980 ft 535 kts 48°
2026-05-04 08:25 -19.31822 175.28911 40979 ft 536 kts 48°
2026-05-04 08:27 -19.13332 175.52708 36594 ft 497 kts 48°
2026-05-04 08:28 -19.11127 175.55536 35937 ft 498 kts 48°
2026-05-04 08:28 -19.08919 175.58364 35275 ft 499 kts 48°
2026-05-04 08:28 -19.07461 175.60232 34942 ft 497 kts 48°
2026-05-04 08:28 -19.05269 175.63043 34432 ft 494 kts 48°
2026-05-04 08:29 -19.03092 175.65833 33938 ft 491 kts 48°
2026-05-04 08:29 -19.00922 175.68613 33396 ft 488 kts 48°
2026-05-04 08:29 -18.98769 175.71370 32885 ft 484 kts 47°
2026-05-04 08:31 -18.84142 175.90068 29443 ft 460 kts 46°
2026-05-04 08:33 -18.70647 176.07268 26216 ft 436 kts 45°
2026-05-04 08:33 -18.68720 176.09716 25739 ft 434 kts 45°
2026-05-04 08:35 -18.55398 176.26613 22315 ft 420 kts 46°
2026-05-04 08:35 -18.53533 176.28975 21822 ft 417 kts 46°
2026-05-04 08:35 -18.51688 176.31313 21348 ft 414 kts 46°
2026-05-04 08:35 -18.49850 176.33640 20873 ft 411 kts 46°
2026-05-04 08:37 -18.39073 176.47264 18025 ft 395 kts 47°
2026-05-04 08:37 -18.37326 176.49472 17539 ft 391 kts 47°
2026-05-04 08:37 -18.35592 176.51662 17070 ft 388 kts 47°
2026-05-04 08:38 -18.33873 176.53831 16623 ft 385 kts 48°
2026-05-04 08:38 -18.32167 176.55983 16181 ft 382 kts 48°
2026-05-04 08:38 -18.30491 176.58097 15720 ft 379 kts 48°
2026-05-04 08:40 -18.18909 176.72679 12546 ft 360 kts 49°
2026-05-04 08:40 -18.17311 176.74688 12127 ft 356 kts 49°
2026-05-04 08:40 -18.15728 176.76679 11677 ft 353 kts 49°
2026-05-04 08:41 -18.14164 176.78645 11229 ft 349 kts 49°
2026-05-04 08:41 -18.12612 176.80594 10803 ft 346 kts 49°
2026-05-04 08:41 -18.11083 176.82529 10360 ft 343 kts 50°
2026-05-04 08:41 -18.09903 176.84648 10189 ft 329 kts 68°
2026-05-04 08:42 -18.09168 176.86875 10064 ft 315 kts 73°
2026-05-04 08:42 -18.08562 176.89032 9899 ft 303 kts 74°
2026-05-04 08:42 -18.07988 176.91156 9548 ft 301 kts 74°
2026-05-04 08:42 -18.07424 176.93280 9210 ft 302 kts 74°
2026-05-04 08:43 -18.06867 176.95398 8899 ft 299 kts 74°
2026-05-04 08:43 -18.06318 176.97494 8576 ft 296 kts 74°
2026-05-04 08:43 -18.05775 176.99575 8260 ft 294 kts 74°
2026-05-04 08:43 -18.05237 177.01635 7951 ft 292 kts 74°
2026-05-04 08:44 -18.04704 177.03681 7637 ft 290 kts 74°
2026-05-04 08:44 -18.04173 177.05717 7329 ft 287 kts 74°
2026-05-04 08:46 -18.00633 177.19280 5610 ft 246 kts 74°
2026-05-04 08:46 -18.00190 177.20976 5459 ft 239 kts 74°
2026-05-04 08:46 -17.99752 177.22652 5229 ft 236 kts 74°
2026-05-04 08:46 -17.99320 177.24304 5003 ft 233 kts 74°
2026-05-04 08:47 -17.98849 177.25929 4783 ft 233 kts 68°
2026-05-04 08:47 -17.97946 177.27328 4628 ft 232 kts 45°
2026-05-04 08:47 -17.96690 177.28378 4280 ft 231 kts 37°
2026-05-04 08:47 -17.95372 177.29347 3876 ft 232 kts 36°
2026-05-04 08:48 -17.94060 177.30304 3568 ft 227 kts 37°
2026-05-04 08:48 -17.92783 177.31246 3483 ft 223 kts 38°
2026-05-04 08:48 -17.91532 177.32113 3471 ft 208 kts 32°
2026-05-04 08:48 -17.90295 177.32769 3450 ft 192 kts 28°
2026-05-04 08:49 -17.89170 177.33453 3294 ft 182 kts 33°
2026-05-04 08:50 -17.83371 177.37887 1532 ft 146 kts 46°
2026-05-04 08:50 -17.82604 177.38550 1325 ft 136 kts 44°
2026-05-04 08:51 -17.81884 177.39145 1105 ft 131 kts 41°
2026-05-04 08:51 -17.81164 177.39744 957 ft 133 kts 40°
2026-05-04 08:51 -17.80439 177.40339 781 ft 132 kts 40°
2026-05-04 08:51 -17.79708 177.40941 664 ft 136 kts 39°
2026-05-04 08:52 -17.78950 177.41558 483 ft 140 kts 39°
2026-05-04 08:52 -17.78183 177.42172 318 ft 138 kts 39°
2026-05-04 08:52 -17.77419 177.42788 124 ft 138 kts 39°
2026-05-04 08:52 -17.76670 177.43395 50 ft 129 kts 37°
2026-05-04 08:53 -17.76048 177.43897 48 ft 98 kts 36°
2026-05-04 08:54 -17.75138 177.44809 52 ft 2 kts 103°
2026-05-04 08:55 -17.75145 177.44842 50 ft 7 kts 103°
2026-05-04 08:55 -17.75159 177.44899 51 ft 9 kts 104°
2026-05-04 08:55 -17.75175 177.44965 48 ft 8 kts 105°
2026-05-04 08:55 -17.75178 177.44977 49 ft 2 kts 104°
2026-05-04 08:57 -17.75185 177.45006 49 ft 0 kts 104°